Time,TemperatureF,DewpointF,PressureIn,WindDirection,WindDirectionDegrees,WindSpeedMPH,WindSpeedGustMPH,Humidity,HourlyPrecipIn,Conditions,Clouds,dailyrainin,SoftwareType,DateUTC
2013-07-10 00:00:00,69.4,66.7,29.44,ESE,112,0.0,0.0,92,0.00,,,0.02,Rainwise IP-100,2013-07-10 04:00:00,
2013-07-10 00:01:00,69.4,66.7,29.44,ESE,112,0.0,0.0,92,0.00,,,0.00,Rainwise IP-100,2013-07-10 04:01:00,
2013-07-10 00:06:00,69.4,67.0,29.44,ESE,112,0.0,0.0,93,0.00,,,0.00,Rainwise IP-100,2013-07-10 04:06:00,
2013-07-10 00:11:00,69.4,67.0,29.44,ESE,112,0.0,3.0,93,0.00,,,0.00,Rainwise IP-100,2013-07-10 04:11:00,
2013-07-10 00:16:00,69.3,67.0,29.44,ESE,112,0.0,1.0,93,0.00,,,0.00,Rainwise IP-100,2013-07-10 04:16:00,
2013-07-10 00:21:00,69.3,67.0,29.44,ESE,112,0.0,0.0,93,0.00,,,0.00,Rainwise IP-100,2013-07-10 04:21:00,
2013-07-10 00:26:00,69.3,67.0,29.44,ESE,112,0.0,0.0,93,0.00,,,0.00,Rainwise IP-100,2013-07-10 04:26:00,
2013-07-10 00:31:00,69.3,66.7,29.44,ESE,112,0.0,1.0,92,0.00,,,0.00,Rainwise IP-100,2013-07-10 04:31:00,
2013-07-10 00:36:00,69.3,67.0,29.44,ESE,112,0.0,2.0,93,0.00,,,0.00,Rainwise IP-100,2013-07-10 04:36:00,
2013-07-10 00:42:00,69.3,67.0,29.44,ESE,112,0.0,0.0,93,0.00,,,0.00,Rainwise IP-100,2013-07-10 04:42:00,
2013-07-10 00:47:00,69.5,67.5,29.44,ESE,112,0.0,0.0,93,0.00,,,0.00,Rainwise IP-100,2013-07-10 04:47:00,
2013-07-10 00:52:00,69.5,67.5,29.44,ESE,112,0.0,0.0,93,0.00,,,0.00,Rainwise IP-100,2013-07-10 04:52:00,
2013-07-10 00:57:00,69.5,68.0,29.43,ESE,112,0.0,0.0,94,0.00,,,0.00,Rainwise IP-100,2013-07-10 04:57:00,
2013-07-10 01:02:00,69.5,68.0,29.43,ESE,112,0.0,0.0,94,0.00,,,0.00,Rainwise IP-100,2013-07-10 05:02:00,
2013-07-10 01:07:00,69.3,67.0,29.43,ESE,112,0.0,0.0,93,0.00,,,0.00,Rainwise IP-100,2013-07-10 05:07:00,
2013-07-10 01:12:00,69.3,67.0,29.43,ESE,112,0.0,0.0,93,0.00,,,0.00,Rainwise IP-100,2013-07-10 05:12:00,
2013-07-10 01:18:00,69.2,67.0,29.42,ESE,112,0.0,0.0,93,0.00,,,0.00,Rainwise IP-100,2013-07-10 05:18:00,
2013-07-10 01:23:00,69.2,67.0,29.42,ESE,112,0.0,0.0,93,0.00,,,0.00,Rainwise IP-100,2013-07-10 05:23:00,
2013-07-10 01:28:00,69.2,67.0,29.42,ESE,112,0.0,0.0,93,0.00,,,0.00,Rainwise IP-100,2013-07-10 05:28:00,
2013-07-10 01:30:00,69.2,67.0,29.42,ESE,112,0.0,0.0,93,0.00,,,0.00,Rainwise IP-100,2013-07-10 05:30:00,
2013-07-10 01:35:00,69.1,66.7,29.42,ESE,112,0.0,0.0,93,0.00,,,0.00,Rainwise IP-100,2013-07-10 05:35:00,
2013-07-10 01:40:00,69.1,66.7,29.42,ESE,112,0.0,0.0,93,0.00,,,0.00,Rainwise IP-100,2013-07-10 05:40:00,
2013-07-10 01:45:00,69.1,66.7,29.41,ESE,112,1.0,2.0,93,0.00,,,0.00,Rainwise IP-100,2013-07-10 05:45:00,
2013-07-10 01:50:00,69.3,67.0,29.42,ESE,112,0.0,1.0,93,0.00,,,0.00,Rainwise IP-100,2013-07-10 05:50:00,
2013-07-10 01:55:00,69.3,67.0,29.42,ESE,112,0.0,0.0,93,0.00,,,0.00,Rainwise IP-100,2013-07-10 05:55:00,
2013-07-10 02:00:00,69.3,67.0,29.42,ESE,112,0.0,0.0,93,0.00,,,0.00,Rainwise IP-100,2013-07-10 06:00:00,
2013-07-10 02:06:00,69.3,67.0,29.41,ESE,112,3.0,3.0,93,0.00,,,0.00,Rainwise IP-100,2013-07-10 06:06:00,
2013-07-10 02:08:00,69.0,67.0,29.41,East,90,2.0,4.0,94,0.00,,,0.00,Rainwise IP-100,2013-07-10 06:08:00,
2013-07-10 02:13:00,68.9,66.7,29.41,ESE,112,0.0,4.0,93,0.00,,,0.00,Rainwise IP-100,2013-07-10 06:13:00,
2013-07-10 02:18:00,68.9,66.7,29.41,SE,135,0.0,1.0,93,0.00,,,0.00,Rainwise IP-100,2013-07-10 06:18:00,
2013-07-10 02:23:00,68.9,66.7,29.41,SE,135,0.0,0.0,93,0.00,,,0.00,Rainwise IP-100,2013-07-10 06:23:00,
2013-07-10 02:28:00,68.9,66.7,29.41,SE,135,0.0,1.0,93,0.00,,,0.00,Rainwise IP-100,2013-07-10 06:28:00,
2013-07-10 02:33:00,68.9,66.7,29.40,SE,135,0.0,2.0,93,0.00,,,0.00,Rainwise IP-100,2013-07-10 06:33:00,
2013-07-10 02:38:00,68.8,67.0,29.40,ESE,112,4.0,4.0,94,0.00,,,0.00,Rainwise IP-100,2013-07-10 06:38:00,
2013-07-10 02:44:00,68.7,66.7,29.40,East,90,1.0,4.0,94,0.00,,,0.00,Rainwise IP-100,2013-07-10 06:44:00,
2013-07-10 02:49:00,68.9,66.7,29.40,ENE,67,0.0,5.0,93,0.00,,,0.00,Rainwise IP-100,2013-07-10 06:49:00,
2013-07-10 02:54:00,68.8,66.7,29.39,ESE,112,1.0,5.0,93,0.00,,,0.00,Rainwise IP-100,2013-07-10 06:54:00,
2013-07-10 02:59:00,68.7,66.3,29.39,ENE,67,1.0,4.0,93,0.00,,,0.00,Rainwise IP-100,2013-07-10 06:59:00,
2013-07-10 03:04:00,68.7,66.3,29.39,SE,135,0.0,4.0,93,0.00,,,0.00,Rainwise IP-100,2013-07-10 07:04:00,
2013-07-10 03:09:00,68.4,67.0,29.39,ENE,67,2.0,3.0,95,0.00,,,0.00,Rainwise IP-100,2013-07-10 07:09:00,
2013-07-10 03:14:00,68.3,67.0,29.39,ENE,67,0.0,3.0,95,0.00,,,0.00,Rainwise IP-100,2013-07-10 07:14:00,
2013-07-10 03:20:00,68.2,66.7,29.39,SE,135,2.0,4.0,95,0.00,,,0.00,Rainwise IP-100,2013-07-10 07:20:00,
2013-07-10 03:25:00,68.2,66.7,29.39,SE,135,0.0,3.0,95,0.00,,,0.00,Rainwise IP-100,2013-07-10 07:25:00,
2013-07-10 03:30:00,68.2,66.7,29.39,East,90,1.0,4.0,95,0.00,,,0.00,Rainwise IP-100,2013-07-10 07:30:00,
2013-07-10 03:35:00,68.2,66.7,29.39,East,90,0.0,2.0,95,0.00,,,0.00,Rainwise IP-100,2013-07-10 07:35:00,
2013-07-10 03:40:00,68.1,66.7,29.39,East,90,2.0,0.0,95,0.00,,,0.00,Rainwise IP-100,2013-07-10 07:40:00,
2013-07-10 03:45:00,68.1,66.7,29.38,East,90,0.0,3.0,95,0.00,,,0.00,Rainwise IP-100,2013-07-10 07:45:00,
2013-07-10 03:50:00,68.1,66.7,29.38,SE,135,1.0,3.0,95,0.00,,,0.00,Rainwise IP-100,2013-07-10 07:50:00,
2013-07-10 03:56:00,67.9,66.7,29.38,East,90,2.0,4.0,95,0.00,,,0.00,Rainwise IP-100,2013-07-10 07:56:00,
2013-07-10 04:01:00,67.9,66.7,29.38,East,90,0.0,5.0,95,0.00,,,0.00,Rainwise IP-100,2013-07-10 08:01:00,
2013-07-10 04:06:00,67.9,66.7,29.37,ESE,112,0.0,1.0,95,0.00,,,0.00,Rainwise IP-100,2013-07-10 08:06:00,
2013-07-10 04:11:00,67.9,66.7,29.37,ESE,112,0.0,0.0,96,0.00,,,0.00,Rainwise IP-100,2013-07-10 08:11:00,
2013-07-10 04:16:00,67.8,66.7,29.37,ESE,112,0.0,2.0,95,0.00,,,0.00,Rainwise IP-100,2013-07-10 08:16:00,
2013-07-10 04:21:00,67.8,66.7,29.37,ESE,112,0.0,3.0,96,0.00,,,0.00,Rainwise IP-100,2013-07-10 08:21:00,
2013-07-10 04:26:00,67.7,66.3,29.37,ESE,112,0.0,2.0,95,0.00,,,0.00,Rainwise IP-100,2013-07-10 08:26:00,
2013-07-10 04:31:00,67.9,66.7,29.37,ESE,112,0.0,1.0,95,0.00,,,0.00,Rainwise IP-100,2013-07-10 08:31:00,
2013-07-10 04:37:00,67.9,66.7,29.38,ESE,112,0.0,2.0,95,0.00,,,0.00,Rainwise IP-100,2013-07-10 08:37:00,
2013-07-10 04:42:00,67.9,66.7,29.38,ESE,112,0.0,0.0,95,0.00,,,0.00,Rainwise IP-100,2013-07-10 08:42:00,
2013-07-10 04:47:00,67.9,66.7,29.38,ESE,112,0.0,1.0,95,0.00,,,0.00,Rainwise IP-100,2013-07-10 08:47:00,
2013-07-10 04:52:00,67.7,66.3,29.38,ESE,112,1.0,2.0,96,0.00,,,0.00,Rainwise IP-100,2013-07-10 08:52:00,
2013-07-10 04:57:00,67.7,66.3,29.37,East,90,0.0,4.0,96,0.00,,,0.00,Rainwise IP-100,2013-07-10 08:57:00,
2013-07-10 05:02:00,67.6,66.3,29.37,East,90,0.0,2.0,96,0.00,,,0.00,Rainwise IP-100,2013-07-10 09:02:00,
2013-07-10 05:07:00,67.7,66.3,29.37,East,90,1.0,3.0,96,0.00,,,0.00,Rainwise IP-100,2013-07-10 09:07:00,
2013-07-10 05:13:00,67.6,66.3,29.37,East,90,0.0,2.0,96,0.00,,,0.00,Rainwise IP-100,2013-07-10 09:13:00,
2013-07-10 05:18:00,67.6,66.3,29.37,East,90,0.0,0.0,96,0.00,,,0.00,Rainwise IP-100,2013-07-10 09:18:00,
2013-07-10 05:23:00,67.6,66.3,29.37,East,90,0.0,4.0,96,0.00,,,0.00,Rainwise IP-100,2013-07-10 09:23:00,
2013-07-10 05:28:00,67.5,66.3,29.37,SE,135,0.0,1.0,96,0.00,,,0.00,Rainwise IP-100,2013-07-10 09:28:00,
2013-07-10 05:33:00,67.5,66.3,29.37,SE,135,0.0,0.0,96,0.00,,,0.00,Rainwise IP-100,2013-07-10 09:33:00,
2013-07-10 05:38:00,67.5,66.3,29.37,East,90,3.0,3.0,96,0.00,,,0.00,Rainwise IP-100,2013-07-10 09:38:00,
2013-07-10 05:43:00,67.5,66.3,29.37,East,90,0.0,4.0,96,0.00,,,0.00,Rainwise IP-100,2013-07-10 09:43:00,
2013-07-10 05:48:00,67.5,66.3,29.37,SSE,157,0.0,3.0,96,0.00,,,0.00,Rainwise IP-100,2013-07-10 09:48:00,
2013-07-10 05:53:00,67.5,66.3,29.37,SE,135,0.0,2.0,96,0.00,,,0.00,Rainwise IP-100,2013-07-10 09:53:00,
2013-07-10 05:59:00,67.5,66.3,29.37,SE,135,0.0,2.0,96,0.00,,,0.00,Rainwise IP-100,2013-07-10 09:59:00,
2013-07-10 06:04:00,67.5,66.3,29.37,SE,135,0.0,0.0,96,0.00,,,0.00,Rainwise IP-100,2013-07-10 10:04:00,
2013-07-10 06:09:00,67.6,66.3,29.37,SE,135,0.0,0.0,96,0.00,,,0.00,Rainwise IP-100,2013-07-10 10:09:00,
2013-07-10 06:14:00,67.8,66.7,29.37,South,180,0.0,0.0,96,0.00,,,0.00,Rainwise IP-100,2013-07-10 10:14:00,
2013-07-10 06:19:00,67.8,66.7,29.36,SSW,202,1.0,3.0,96,0.00,,,0.00,Rainwise IP-100,2013-07-10 10:19:00,
2013-07-10 06:24:00,67.8,66.7,29.36,South,180,0.0,3.0,95,0.00,,,0.00,Rainwise IP-100,2013-07-10 10:24:00,
2013-07-10 06:29:00,67.8,66.7,29.37,East,90,0.0,3.0,96,0.00,,,0.00,Rainwise IP-100,2013-07-10 10:29:00,
2013-07-10 06:35:00,67.6,66.3,29.36,East,90,0.0,0.0,96,0.00,,,0.00,Rainwise IP-100,2013-07-10 10:35:00,
2013-07-10 06:40:00,67.6,66.3,29.36,East,90,0.0,3.0,96,0.00,,,0.00,Rainwise IP-100,2013-07-10 10:40:00,
2013-07-10 06:45:00,67.7,66.3,29.36,East,90,2.0,2.0,96,0.00,,,0.00,Rainwise IP-100,2013-07-10 10:45:00,
2013-07-10 06:50:00,67.6,66.3,29.36,East,90,1.0,3.0,96,0.06,,,0.01,Rainwise IP-100,2013-07-10 10:50:00,
2013-07-10 06:55:00,67.6,66.7,29.36,East,90,0.0,4.0,97,0.06,,,0.01,Rainwise IP-100,2013-07-10 10:55:00,
2013-07-10 07:00:00,67.5,66.3,29.36,East,90,0.0,0.0,96,0.06,,,0.02,Rainwise IP-100,2013-07-10 11:00:00,
2013-07-10 07:05:00,67.5,66.3,29.36,East,90,0.0,0.0,96,0.06,,,0.02,Rainwise IP-100,2013-07-10 11:05:00,
2013-07-10 07:10:00,67.5,66.3,29.36,East,90,0.0,0.0,96,0.00,,,0.02,Rainwise IP-100,2013-07-10 11:10:00,
2013-07-10 07:16:00,67.6,66.3,29.36,East,90,0.0,0.0,96,0.06,,,0.03,Rainwise IP-100,2013-07-10 11:16:00,
2013-07-10 07:21:00,67.6,66.3,29.36,East,90,0.0,0.0,96,0.18,,,0.05,Rainwise IP-100,2013-07-10 11:21:00,
2013-07-10 07:26:00,67.5,66.3,29.35,East,90,0.0,0.0,96,0.18,,,0.06,Rainwise IP-100,2013-07-10 11:26:00,
2013-07-10 07:31:00,67.4,66.7,29.35,East,90,0.0,0.0,97,0.12,,,0.07,Rainwise IP-100,2013-07-10 11:31:00,
2013-07-10 07:36:00,67.5,66.7,29.35,East,90,0.0,2.0,97,0.06,,,0.07,Rainwise IP-100,2013-07-10 11:36:00,
2013-07-10 07:41:00,67.5,66.7,29.35,WNW,292,1.0,3.0,97,0.00,,,0.07,Rainwise IP-100,2013-07-10 11:41:00,
2013-07-10 07:46:00,67.5,67.0,29.35,West,270,3.0,3.0,98,0.00,,,0.07,Rainwise IP-100,2013-07-10 11:46:00,
2013-07-10 07:52:00,67.5,66.3,29.35,SE,135,1.0,6.0,96,0.00,,,0.07,Rainwise IP-100,2013-07-10 11:52:00,
2013-07-10 07:57:00,67.7,66.3,29.35,WNW,292,0.0,6.0,96,0.00,,,0.07,Rainwise IP-100,2013-07-10 11:57:00,
2013-07-10 08:01:00,67.5,66.7,29.35,SSW,202,0.0,3.0,97,0.00,,,0.07,Rainwise IP-100,2013-07-10 12:01:00,
2013-07-10 08:06:00,67.8,66.7,29.35,South,180,3.0,3.0,96,0.00,,,0.07,Rainwise IP-100,2013-07-10 12:06:00,
2013-07-10 08:12:00,67.8,66.7,29.35,WSW,247,0.0,4.0,96,0.00,,,0.07,Rainwise IP-100,2013-07-10 12:12:00,
2013-07-10 08:17:00,67.8,67.0,29.35,SSE,157,0.0,5.0,97,0.00,,,0.07,Rainwise IP-100,2013-07-10 12:17:00,
2013-07-10 08:22:00,67.7,67.0,29.35,ENE,67,0.0,0.0,98,0.00,,,0.07,Rainwise IP-100,2013-07-10 12:22:00,
2013-07-10 08:27:00,67.7,67.0,29.35,ENE,67,0.0,0.0,98,0.00,,,0.07,Rainwise IP-100,2013-07-10 12:27:00,
2013-07-10 08:32:00,67.8,67.5,29.35,North,360,0.0,2.0,98,0.00,,,0.07,Rainwise IP-100,2013-07-10 12:32:00,
2013-07-10 08:37:00,68.0,67.0,29.35,SW,225,0.0,7.0,97,0.00,,,0.07,Rainwise IP-100,2013-07-10 12:37:00,
2013-07-10 08:42:00,68.2,67.5,29.35,WSW,247,0.0,4.0,98,0.00,,,0.07,Rainwise IP-100,2013-07-10 12:42:00,
2013-07-10 08:48:00,68.4,68.0,29.34,SSE,157,0.0,4.0,98,0.00,,,0.07,Rainwise IP-100,2013-07-10 12:48:00,
2013-07-10 08:53:00,68.7,68.0,29.34,ESE,112,0.0,6.0,98,0.00,,,0.07,Rainwise IP-100,2013-07-10 12:53:00,
2013-07-10 08:58:00,68.9,68.5,29.34,South,180,2.0,5.0,98,0.00,,,0.07,Rainwise IP-100,2013-07-10 12:58:00,
2013-07-10 09:03:00,69.2,69.0,29.34,ESE,112,3.0,5.0,98,0.00,,,0.07,Rainwise IP-100,2013-07-10 13:03:00,
2013-07-10 09:08:00,69.4,69.0,29.34,SE,135,4.0,7.0,98,0.00,,,0.07,Rainwise IP-100,2013-07-10 13:08:00,
2013-07-10 09:13:00,69.7,69.3,29.33,SW,225,5.0,6.0,99,0.00,,,0.07,Rainwise IP-100,2013-07-10 13:13:00,
2013-07-10 09:18:00,69.8,69.3,29.33,SW,225,0.0,6.0,98,0.00,,,0.07,Rainwise IP-100,2013-07-10 13:18:00,
2013-07-10 09:23:00,69.9,69.7,29.34,North,360,0.0,6.0,99,0.00,,,0.07,Rainwise IP-100,2013-07-10 13:23:00,
2013-07-10 09:29:00,69.9,69.7,29.34,SE,135,0.0,4.0,98,0.00,,,0.07,Rainwise IP-100,2013-07-10 13:29:00,
2013-07-10 09:34:00,69.9,69.7,29.34,WSW,247,4.0,4.0,98,0.00,,,0.07,Rainwise IP-100,2013-07-10 13:34:00,
2013-07-10 09:39:00,70.0,69.7,29.34,West,270,0.0,5.0,98,0.00,,,0.07,Rainwise IP-100,2013-07-10 13:39:00,
2013-07-10 09:44:00,70.4,69.7,29.34,SSE,157,0.0,5.0,97,0.00,,,0.07,Rainwise IP-100,2013-07-10 13:44:00,
2013-07-10 09:49:00,70.5,69.7,29.34,South,180,1.0,7.0,97,0.00,,,0.07,Rainwise IP-100,2013-07-10 13:49:00,
2013-07-10 09:54:00,70.7,69.7,29.34,South,180,2.0,6.0,97,0.00,,,0.07,Rainwise IP-100,2013-07-10 13:54:00,
2013-07-10 09:59:00,70.7,69.7,29.34,West,270,4.0,6.0,97,0.00,,,0.07,Rainwise IP-100,2013-07-10 13:59:00,
2013-07-10 10:05:00,70.4,69.7,29.34,WSW,247,1.0,7.0,97,0.00,,,0.07,Rainwise IP-100,2013-07-10 14:05:00,
2013-07-10 10:10:00,70.6,69.7,29.33,East,90,1.0,8.0,97,0.00,,,0.07,Rainwise IP-100,2013-07-10 14:10:00,
2013-07-10 10:15:00,70.7,69.7,29.33,SE,135,5.0,6.0,97,0.00,,,0.07,Rainwise IP-100,2013-07-10 14:15:00,
2013-07-10 10:20:00,70.9,70.0,29.33,SW,225,0.0,5.0,97,0.00,,,0.07,Rainwise IP-100,2013-07-10 14:20:00,
2013-07-10 10:25:00,71.3,70.5,29.33,SSE,157,1.0,6.0,97,0.00,,,0.07,Rainwise IP-100,2013-07-10 14:25:00,
2013-07-10 10:30:00,71.6,71.0,29.33,ESE,112,0.0,6.0,97,0.00,,,0.07,Rainwise IP-100,2013-07-10 14:30:00,
2013-07-10 10:35:00,71.9,71.3,29.33,South,180,2.0,5.0,97,0.00,,,0.07,Rainwise IP-100,2013-07-10 14:35:00,
2013-07-10 10:40:00,72.3,71.3,29.33,SW,225,4.0,9.0,96,0.00,,,0.07,Rainwise IP-100,2013-07-10 14:40:00,
2013-07-10 10:45:00,72.7,71.3,29.33,SSE,157,7.0,7.0,95,0.00,,,0.07,Rainwise IP-100,2013-07-10 14:45:00,
2013-07-10 10:51:00,73.8,72.3,29.33,SW,225,6.0,7.0,95,0.00,,,0.07,Rainwise IP-100,2013-07-10 14:51:00,
2013-07-10 10:56:00,74.4,72.3,29.33,SSE,157,4.0,9.0,93,0.00,,,0.07,Rainwise IP-100,2013-07-10 14:56:00,
2013-07-10 11:01:00,74.6,72.7,29.33,North,360,1.0,7.0,93,0.00,,,0.07,Rainwise IP-100,2013-07-10 15:01:00,
2013-07-10 11:06:00,74.8,72.3,29.33,SSE,157,2.0,6.0,92,0.00,,,0.07,Rainwise IP-100,2013-07-10 15:06:00,
2013-07-10 11:11:00,74.8,72.3,29.33,SSE,157,1.0,5.0,92,0.00,,,0.07,Rainwise IP-100,2013-07-10 15:11:00,
2013-07-10 11:16:00,75.1,72.3,29.33,West,270,1.0,4.0,91,0.00,,,0.07,Rainwise IP-100,2013-07-10 15:16:00,
2013-07-10 11:21:00,75.9,73.7,29.33,ESE,112,3.0,6.0,93,0.00,,,0.07,Rainwise IP-100,2013-07-10 15:21:00,
2013-07-10 11:27:00,76.9,74.3,29.33,SSW,202,2.0,9.0,91,0.00,,,0.07,Rainwise IP-100,2013-07-10 15:27:00,
2013-07-10 11:32:00,77.5,73.7,29.33,SW,225,0.0,9.0,88,0.00,,,0.07,Rainwise IP-100,2013-07-10 15:32:00,
2013-07-10 11:37:00,77.8,73.7,29.33,SE,135,3.0,8.0,87,0.00,,,0.07,Rainwise IP-100,2013-07-10 15:37:00,
2013-07-10 11:42:00,78.1,73.0,29.33,WSW,247,1.0,7.0,85,0.00,,,0.07,Rainwise IP-100,2013-07-10 15:42:00,
2013-07-10 11:47:00,78.5,73.7,29.33,SE,135,2.0,6.0,85,0.00,,,0.07,Rainwise IP-100,2013-07-10 15:47:00,
2013-07-10 11:52:00,77.9,72.7,29.33,WSW,247,1.0,9.0,84,0.00,,,0.07,Rainwise IP-100,2013-07-10 15:52:00,
2013-07-10 11:57:00,78.1,73.7,29.32,South,180,2.0,6.0,87,0.00,,,0.07,Rainwise IP-100,2013-07-10 15:57:00,
2013-07-10 12:02:00,78.5,74.3,29.32,SSE,157,0.0,6.0,87,0.00,,,0.07,Rainwise IP-100,2013-07-10 16:02:00,
2013-07-10 12:07:00,78.7,73.0,29.32,ESE,112,7.0,10.0,83,0.00,,,0.07,Rainwise IP-100,2013-07-10 16:07:00,
2013-07-10 12:13:00,79.2,73.7,29.32,SSE,157,5.0,12.0,83,0.00,,,0.07,Rainwise IP-100,2013-07-10 16:13:00,
2013-07-10 12:18:00,79.9,73.7,29.32,West,270,5.0,7.0,82,0.00,,,0.07,Rainwise IP-100,2013-07-10 16:18:00,
2013-07-10 12:23:00,79.6,73.3,29.32,ESE,112,0.0,10.0,81,0.00,,,0.07,Rainwise IP-100,2013-07-10 16:23:00,
2013-07-10 12:28:00,79.5,72.7,29.31,SSE,157,2.0,8.0,79,0.00,,,0.07,Rainwise IP-100,2013-07-10 16:28:00,
2013-07-10 12:33:00,79.5,73.7,29.31,SSE,157,1.0,6.0,82,0.00,,,0.07,Rainwise IP-100,2013-07-10 16:33:00,
2013-07-10 12:38:00,79.6,73.3,29.31,NE,45,1.0,7.0,81,0.00,,,0.07,Rainwise IP-100,2013-07-10 16:38:00,
2013-07-10 12:43:00,79.1,72.3,29.31,SSE,157,10.0,10.0,80,0.00,,,0.07,Rainwise IP-100,2013-07-10 16:43:00,
2013-07-10 12:49:00,78.9,72.7,29.31,South,180,2.0,10.0,81,0.00,,,0.07,Rainwise IP-100,2013-07-10 16:49:00,
2013-07-10 12:54:00,79.2,73.3,29.31,SE,135,1.0,7.0,82,0.00,,,0.07,Rainwise IP-100,2013-07-10 16:54:00,
2013-07-10 12:59:00,79.9,73.3,29.30,South,180,8.0,9.0,81,0.00,,,0.07,Rainwise IP-100,2013-07-10 16:59:00,
2013-07-10 13:04:00,80.8,74.3,29.30,West,270,0.0,13.0,81,0.00,,,0.07,Rainwise IP-100,2013-07-10 17:04:00,
2013-07-10 13:09:00,81.6,74.3,29.29,SSE,157,5.0,9.0,79,0.00,,,0.07,Rainwise IP-100,2013-07-10 17:09:00,
2013-07-10 13:14:00,82.4,74.3,29.29,SSE,157,3.0,9.0,77,0.00,,,0.07,Rainwise IP-100,2013-07-10 17:14:00,
2013-07-10 13:19:00,82.8,74.3,29.29,WSW,247,7.0,9.0,76,0.00,,,0.07,Rainwise IP-100,2013-07-10 17:19:00,
2013-07-10 13:24:00,82.4,73.7,29.29,South,180,5.0,8.0,75,0.00,,,0.07,Rainwise IP-100,2013-07-10 17:24:00,
2013-07-10 13:30:00,82.6,73.3,29.29,SSE,157,5.0,7.0,74,0.00,,,0.07,Rainwise IP-100,2013-07-10 17:30:00,
2013-07-10 13:35:00,82.6,73.7,29.28,WNW,292,4.0,9.0,75,0.00,,,0.07,Rainwise IP-100,2013-07-10 17:35:00,
2013-07-10 13:40:00,83.4,75.0,29.28,South,180,1.0,9.0,76,0.00,,,0.07,Rainwise IP-100,2013-07-10 17:40:00,
2013-07-10 13:45:00,82.5,73.3,29.28,WSW,247,0.0,10.0,74,0.00,,,0.07,Rainwise IP-100,2013-07-10 17:45:00,
2013-07-10 13:50:00,81.3,73.0,29.28,SSE,157,2.0,7.0,76,0.00,,,0.07,Rainwise IP-100,2013-07-10 17:50:00,
2013-07-10 13:55:00,80.4,73.3,29.27,ESE,112,2.0,7.0,79,0.00,,,0.07,Rainwise IP-100,2013-07-10 17:55:00,
2013-07-10 14:00:00,80.9,74.0,29.27,SSE,157,3.0,6.0,79,0.00,,,0.07,Rainwise IP-100,2013-07-10 18:00:00,
2013-07-10 14:06:00,81.2,74.0,29.26,South,180,5.0,6.0,79,0.00,,,0.07,Rainwise IP-100,2013-07-10 18:06:00,
2013-07-10 14:11:00,81.4,73.3,29.26,SW,225,1.0,6.0,77,0.00,,,0.07,Rainwise IP-100,2013-07-10 18:11:00,
2013-07-10 14:16:00,80.9,73.3,29.26,West,270,0.0,10.0,78,0.00,,,0.07,Rainwise IP-100,2013-07-10 18:16:00,
2013-07-10 14:21:00,80.6,73.0,29.26,South,180,2.0,6.0,78,0.00,,,0.07,Rainwise IP-100,2013-07-10 18:21:00,
2013-07-10 14:26:00,80.2,73.0,29.26,SSE,157,4.0,7.0,79,0.00,,,0.07,Rainwise IP-100,2013-07-10 18:26:00,
2013-07-10 14:31:00,80.3,73.7,29.25,South,180,0.0,7.0,81,0.00,,,0.07,Rainwise IP-100,2013-07-10 18:31:00,
2013-07-10 14:36:00,80.5,74.0,29.25,SW,225,2.0,3.0,81,0.00,,,0.07,Rainwise IP-100,2013-07-10 18:36:00,
2013-07-10 14:41:00,81.0,75.5,29.25,SW,225,0.0,7.0,83,0.00,,,0.07,Rainwise IP-100,2013-07-10 18:41:00,
2013-07-10 14:47:00,81.8,75.5,29.25,West,270,3.0,5.0,82,0.00,,,0.07,Rainwise IP-100,2013-07-10 18:47:00,
2013-07-10 14:52:00,82.2,76.0,29.25,WSW,247,4.0,6.0,81,0.00,,,0.07,Rainwise IP-100,2013-07-10 18:52:00,
2013-07-10 14:57:00,82.3,75.0,29.25,SE,135,3.0,8.0,79,0.00,,,0.07,Rainwise IP-100,2013-07-10 18:57:00,
2013-07-10 15:02:00,81.1,74.0,29.25,SW,225,4.0,10.0,79,0.00,,,0.07,Rainwise IP-100,2013-07-10 19:02:00,
2013-07-10 15:07:00,80.3,73.0,29.25,SE,135,3.0,6.0,79,0.00,,,0.07,Rainwise IP-100,2013-07-10 19:07:00,
2013-07-10 15:12:00,79.4,73.0,29.25,ESE,112,3.0,9.0,81,0.00,,,0.07,Rainwise IP-100,2013-07-10 19:12:00,
2013-07-10 15:17:00,78.2,72.7,29.25,ESE,112,5.0,7.0,83,0.00,,,0.07,Rainwise IP-100,2013-07-10 19:17:00,
2013-07-10 15:23:00,77.9,72.7,29.24,SE,135,2.0,6.0,84,0.00,,,0.07,Rainwise IP-100,2013-07-10 19:23:00,
2013-07-10 15:28:00,77.7,73.0,29.24,South,180,1.0,8.0,85,0.00,,,0.07,Rainwise IP-100,2013-07-10 19:28:00,
2013-07-10 15:33:00,77.3,73.0,29.24,WNW,292,0.0,11.0,86,0.00,,,0.07,Rainwise IP-100,2013-07-10 19:33:00,
2013-07-10 15:38:00,76.3,72.3,29.25,WSW,247,7.0,10.0,88,0.00,,,0.07,Rainwise IP-100,2013-07-10 19:38:00,
2013-07-10 15:43:00,75.8,72.0,29.25,SSE,157,0.0,11.0,88,0.00,,,0.07,Rainwise IP-100,2013-07-10 19:43:00,
2013-07-10 15:48:00,75.1,71.3,29.24,North,360,3.0,13.0,88,0.00,,,0.07,Rainwise IP-100,2013-07-10 19:48:00,
2013-07-10 15:53:00,74.2,72.0,29.23,SW,225,14.0,14.0,92,0.06,,,0.09,Rainwise IP-100,2013-07-10 19:53:00,
2013-07-10 15:58:00,73.0,70.5,29.24,SW,225,1.0,15.0,92,0.30,,,0.12,Rainwise IP-100,2013-07-10 19:58:00,
2013-07-10 16:04:00,72.7,70.5,29.23,SE,135,9.0,9.0,93,0.18,,,0.12,Rainwise IP-100,2013-07-10 20:04:00,
2013-07-10 16:09:00,72.5,71.7,29.23,East,90,5.0,10.0,96,0.00,,,0.12,Rainwise IP-100,2013-07-10 20:09:00,
2013-07-10 16:14:00,72.2,71.0,29.24,WSW,247,9.0,14.0,95,0.54,,,0.21,Rainwise IP-100,2013-07-10 20:14:00,
2013-07-10 16:19:00,72.2,71.3,29.23,WSW,247,7.0,19.0,96,0.66,,,0.24,Rainwise IP-100,2013-07-10 20:19:00,
2013-07-10 16:24:00,71.9,71.0,29.23,West,270,0.0,9.0,96,0.24,,,0.25,Rainwise IP-100,2013-07-10 20:24:00,
2013-07-10 16:29:00,71.8,70.5,29.23,ESE,112,5.0,6.0,96,0.18,,,0.26,Rainwise IP-100,2013-07-10 20:29:00,
2013-07-10 16:34:00,71.6,70.5,29.23,SE,135,0.0,8.0,96,0.06,,,0.26,Rainwise IP-100,2013-07-10 20:34:00,
2013-07-10 16:39:00,71.5,70.5,29.23,SE,135,0.0,3.0,96,0.06,,,0.27,Rainwise IP-100,2013-07-10 20:39:00,
2013-07-10 16:44:00,71.4,69.7,29.22,SW,225,1.0,6.0,95,0.06,,,0.27,Rainwise IP-100,2013-07-10 20:44:00,
2013-07-10 16:50:00,71.2,69.3,29.22,ESE,112,0.0,2.0,94,0.06,,,0.28,Rainwise IP-100,2013-07-10 20:50:00,
2013-07-10 16:55:00,71.1,69.3,29.22,ESE,112,0.0,0.0,95,0.12,,,0.29,Rainwise IP-100,2013-07-10 20:55:00,
2013-07-10 17:00:00,71.1,69.3,29.22,ESE,112,0.0,1.0,95,0.12,,,0.30,Rainwise IP-100,2013-07-10 21:00:00,
2013-07-10 17:05:00,71.1,69.7,29.21,ESE,112,0.0,0.0,96,0.06,,,0.30,Rainwise IP-100,2013-07-10 21:05:00,
2013-07-10 17:10:00,71.4,70.0,29.21,ESE,112,0.0,0.0,96,0.06,,,0.31,Rainwise IP-100,2013-07-10 21:10:00,
2013-07-10 17:15:00,71.9,71.3,29.21,WSW,247,4.0,6.0,98,0.06,,,0.31,Rainwise IP-100,2013-07-10 21:15:00,
2013-07-10 17:20:00,72.1,71.3,29.21,WSW,247,0.0,4.0,97,0.00,,,0.31,Rainwise IP-100,2013-07-10 21:20:00,
2013-07-10 17:26:00,72.2,71.3,29.21,WSW,247,0.0,4.0,96,0.00,,,0.31,Rainwise IP-100,2013-07-10 21:26:00,
2013-07-10 17:31:00,72.3,70.5,29.21,WSW,247,1.0,2.0,94,0.00,,,0.31,Rainwise IP-100,2013-07-10 21:31:00,
2013-07-10 17:36:00,72.4,70.5,29.21,WSW,247,0.0,3.0,94,0.00,,,0.31,Rainwise IP-100,2013-07-10 21:36:00,
2013-07-10 17:41:00,72.7,71.0,29.21,WSW,247,0.0,0.0,94,0.00,,,0.31,Rainwise IP-100,2013-07-10 21:41:00,
2013-07-10 17:46:00,72.9,71.7,29.21,ESE,112,1.0,3.0,95,0.00,,,0.31,Rainwise IP-100,2013-07-10 21:46:00,
2013-07-10 17:51:00,73.1,71.3,29.20,ESE,112,0.0,2.0,94,0.00,,,0.31,Rainwise IP-100,2013-07-10 21:51:00,
2013-07-10 17:56:00,73.4,71.7,29.20,ESE,112,0.0,0.0,94,0.00,,,0.31,Rainwise IP-100,2013-07-10 21:56:00,
2013-07-10 18:01:00,73.5,72.0,29.20,ESE,112,0.0,0.0,94,0.00,,,0.31,Rainwise IP-100,2013-07-10 22:01:00,
2013-07-10 18:06:00,73.4,71.7,29.20,ESE,112,0.0,0.0,94,0.00,,,0.31,Rainwise IP-100,2013-07-10 22:06:00,
2013-07-10 18:12:00,73.3,71.7,29.21,ESE,112,0.0,1.0,94,0.00,,,0.31,Rainwise IP-100,2013-07-10 22:12:00,
2013-07-10 18:17:00,73.1,71.3,29.21,ESE,112,0.0,0.0,94,0.00,,,0.31,Rainwise IP-100,2013-07-10 22:17:00,
2013-07-10 18:22:00,73.1,71.3,29.21,ESE,112,0.0,0.0,94,0.00,,,0.31,Rainwise IP-100,2013-07-10 22:22:00,
2013-07-10 18:27:00,73.3,71.7,29.21,ESE,112,0.0,0.0,94,0.00,,,0.31,Rainwise IP-100,2013-07-10 22:27:00,
2013-07-10 18:32:00,73.4,71.3,29.21,SSE,157,0.0,4.0,93,0.00,,,0.31,Rainwise IP-100,2013-07-10 22:32:00,
2013-07-10 18:37:00,73.4,72.0,29.21,SW,225,0.0,4.0,95,0.00,,,0.31,Rainwise IP-100,2013-07-10 22:37:00,
2013-07-10 18:42:00,73.5,72.0,29.21,SW,225,0.0,2.0,94,0.00,,,0.31,Rainwise IP-100,2013-07-10 22:42:00,
2013-07-10 18:48:00,73.4,71.7,29.21,East,90,0.0,1.0,94,0.00,,,0.31,Rainwise IP-100,2013-07-10 22:48:00,
2013-07-10 18:53:00,73.3,72.0,29.21,East,90,0.0,0.0,95,0.00,,,0.31,Rainwise IP-100,2013-07-10 22:53:00,
2013-07-10 18:58:00,73.3,72.0,29.21,East,90,0.0,0.0,95,0.00,,,0.31,Rainwise IP-100,2013-07-10 22:58:00,
2013-07-10 19:03:00,73.3,72.3,29.21,SW,225,0.0,3.0,96,0.00,,,0.31,Rainwise IP-100,2013-07-10 23:03:00,
2013-07-10 19:08:00,73.3,72.3,29.21,SW,225,0.0,3.0,96,0.00,,,0.31,Rainwise IP-100,2013-07-10 23:08:00,
2013-07-10 19:13:00,73.3,72.0,29.21,SW,225,0.0,0.0,95,0.00,,,0.31,Rainwise IP-100,2013-07-10 23:13:00,
2013-07-10 19:18:00,73.3,72.0,29.21,SE,135,0.0,5.0,95,0.00,,,0.31,Rainwise IP-100,2013-07-10 23:18:00,
2013-07-10 19:23:00,73.3,72.0,29.21,SE,135,0.0,1.0,95,0.00,,,0.31,Rainwise IP-100,2013-07-10 23:23:00,
2013-07-10 19:29:00,73.3,72.0,29.20,South,180,0.0,2.0,95,0.00,,,0.31,Rainwise IP-100,2013-07-10 23:29:00,
2013-07-10 19:34:00,73.3,72.3,29.20,SSE,157,0.0,5.0,96,0.00,,,0.31,Rainwise IP-100,2013-07-10 23:34:00,
2013-07-10 19:39:00,73.3,72.3,29.20,WSW,247,0.0,3.0,96,0.00,,,0.31,Rainwise IP-100,2013-07-10 23:39:00,
2013-07-10 19:44:00,73.3,72.7,29.21,WSW,247,3.0,3.0,97,0.00,,,0.32,Rainwise IP-100,2013-07-10 23:44:00,
2013-07-10 19:49:00,73.1,72.0,29.21,SE,135,2.0,6.0,96,0.06,,,0.32,Rainwise IP-100,2013-07-10 23:49:00,
2013-07-10 19:54:00,73.1,72.0,29.21,SE,135,0.0,6.0,96,0.06,,,0.32,Rainwise IP-100,2013-07-10 23:54:00,
2013-07-10 19:59:00,73.0,72.0,29.22,SE,135,0.0,0.0,96,0.00,,,0.32,Rainwise IP-100,2013-07-10 23:59:00,
2013-07-10 20:05:00,73.1,72.0,29.21,SE,135,0.0,0.0,96,0.00,,,0.32,Rainwise IP-100,2013-07-11 00:05:00,
2013-07-10 20:10:00,73.3,72.3,29.21,SE,135,0.0,0.0,96,0.00,,,0.32,Rainwise IP-100,2013-07-11 00:10:00,
2013-07-10 20:15:00,73.2,72.3,29.21,SE,135,0.0,3.0,96,0.00,,,0.32,Rainwise IP-100,2013-07-11 00:15:00,
2013-07-10 20:20:00,73.1,72.0,29.21,SE,135,0.0,1.0,96,0.00,,,0.32,Rainwise IP-100,2013-07-11 00:20:00,
2013-07-10 20:25:00,72.9,72.0,29.21,South,180,0.0,1.0,96,0.00,,,0.32,Rainwise IP-100,2013-07-11 00:25:00,
2013-07-10 20:30:00,72.7,72.0,29.21,WSW,247,0.0,4.0,97,0.00,,,0.32,Rainwise IP-100,2013-07-11 00:30:00,
2013-07-10 20:35:00,72.5,71.7,29.21,ESE,112,0.0,3.0,96,0.00,,,0.32,Rainwise IP-100,2013-07-11 00:35:00,
2013-07-10 20:40:00,72.4,71.3,29.20,SW,225,0.0,3.0,96,0.00,,,0.32,Rainwise IP-100,2013-07-11 00:40:00,
2013-07-10 20:45:00,72.3,71.7,29.21,SE,135,1.0,3.0,97,0.00,,,0.32,Rainwise IP-100,2013-07-11 00:45:00,
2013-07-10 20:51:00,72.3,71.7,29.20,SSE,157,0.0,2.0,97,0.00,,,0.32,Rainwise IP-100,2013-07-11 00:51:00,
2013-07-10 20:56:00,72.3,71.7,29.21,WSW,247,0.0,3.0,98,0.00,,,0.32,Rainwise IP-100,2013-07-11 00:56:00,
2013-07-10 21:01:00,72.3,71.7,29.21,WSW,247,2.0,3.0,97,0.00,,,0.32,Rainwise IP-100,2013-07-11 01:01:00,
2013-07-10 21:06:00,72.4,72.3,29.21,WSW,247,3.0,6.0,100,0.00,,,0.32,Rainwise IP-100,2013-07-11 01:06:00,
2013-07-10 21:11:00,72.4,72.3,29.21,WNW,292,0.0,5.0,100,0.00,,,0.32,Rainwise IP-100,2013-07-11 01:11:00,
2013-07-10 21:16:00,72.3,72.0,29.22,WNW,292,0.0,0.0,99,0.00,,,0.32,Rainwise IP-100,2013-07-11 01:16:00,
2013-07-10 21:21:00,72.1,71.3,29.21,WNW,292,0.0,0.0,98,0.00,,,0.32,Rainwise IP-100,2013-07-11 01:21:00,
2013-07-10 21:26:00,71.9,71.3,29.21,SE,135,0.0,2.0,98,0.00,,,0.32,Rainwise IP-100,2013-07-11 01:26:00,
2013-07-10 21:32:00,71.7,71.0,29.21,SE,135,0.0,0.0,98,0.00,,,0.32,Rainwise IP-100,2013-07-11 01:32:00,
2013-07-10 21:37:00,71.6,71.0,29.21,SE,135,0.0,0.0,98,0.00,,,0.32,Rainwise IP-100,2013-07-11 01:37:00,
2013-07-10 21:42:00,71.6,71.3,29.21,SW,225,2.0,0.0,99,0.00,,,0.32,Rainwise IP-100,2013-07-11 01:42:00,
2013-07-10 21:47:00,71.6,71.3,29.21,SW,225,0.0,3.0,99,0.00,,,0.32,Rainwise IP-100,2013-07-11 01:47:00,
2013-07-10 21:52:00,71.6,71.3,29.21,SW,225,0.0,3.0,99,0.00,,,0.32,Rainwise IP-100,2013-07-11 01:52:00,
2013-07-10 21:57:00,71.7,71.3,29.21,WSW,247,1.0,5.0,99,0.00,,,0.32,Rainwise IP-100,2013-07-11 01:57:00,
2013-07-10 22:02:00,71.7,71.3,29.21,WSW,247,0.0,4.0,99,0.00,,,0.32,Rainwise IP-100,2013-07-11 02:02:00,
2013-07-10 22:07:00,71.6,71.7,29.21,WSW,247,4.0,4.0,100,0.00,,,0.32,Rainwise IP-100,2013-07-11 02:07:00,
2013-07-10 22:12:00,71.7,71.7,29.21,SW,225,4.0,6.0,100,0.00,,,0.32,Rainwise IP-100,2013-07-11 02:12:00,
2013-07-10 22:18:00,71.6,71.7,29.21,WSW,247,6.0,6.0,100,0.00,,,0.32,Rainwise IP-100,2013-07-11 02:18:00,
2013-07-10 22:23:00,71.6,71.7,29.21,WSW,247,0.0,6.0,100,0.00,,,0.32,Rainwise IP-100,2013-07-11 02:23:00,
2013-07-10 22:28:00,71.7,71.7,29.22,SW,225,0.0,9.0,100,0.00,,,0.32,Rainwise IP-100,2013-07-11 02:28:00,
2013-07-10 22:33:00,71.6,71.7,29.21,SW,225,1.0,6.0,100,0.00,,,0.32,Rainwise IP-100,2013-07-11 02:33:00,
2013-07-10 22:38:00,71.4,71.3,29.21,SW,225,0.0,6.0,100,0.00,,,0.32,Rainwise IP-100,2013-07-11 02:38:00,
2013-07-10 22:43:00,71.2,71.3,29.21,SW,225,0.0,4.0,100,0.00,,,0.32,Rainwise IP-100,2013-07-11 02:43:00,
2013-07-10 22:48:00,71.0,71.0,29.21,SW,225,0.0,1.0,100,0.00,,,0.32,Rainwise IP-100,2013-07-11 02:48:00,
2013-07-10 22:54:00,70.9,71.0,29.21,SW,225,0.0,0.0,100,0.00,,,0.32,Rainwise IP-100,2013-07-11 02:54:00,
2013-07-10 22:59:00,70.7,70.5,29.21,SE,135,1.0,2.0,100,0.00,,,0.32,Rainwise IP-100,2013-07-11 02:59:00,
2013-07-10 23:04:00,70.9,71.0,29.21,SW,225,3.0,4.0,100,0.00,,,0.32,Rainwise IP-100,2013-07-11 03:04:00,
2013-07-10 23:09:00,71.3,71.3,29.21,WSW,247,2.0,4.0,100,0.00,,,0.32,Rainwise IP-100,2013-07-11 03:09:00,
2013-07-10 23:14:00,71.3,71.3,29.21,South,180,0.0,3.0,100,0.00,,,0.32,Rainwise IP-100,2013-07-11 03:14:00,
2013-07-10 23:19:00,71.2,71.3,29.21,SW,225,0.0,3.0,100,0.00,,,0.32,Rainwise IP-100,2013-07-11 03:19:00,
2013-07-10 23:24:00,71.1,71.0,29.21,SW,225,0.0,0.0,100,0.00,,,0.32,Rainwise IP-100,2013-07-11 03:24:00,
2013-07-10 23:29:00,70.9,71.0,29.21,SW,225,0.0,0.0,100,0.00,,,0.32,Rainwise IP-100,2013-07-11 03:29:00,
2013-07-10 23:35:00,70.9,71.0,29.21,SW,225,0.0,0.0,100,0.00,,,0.32,Rainwise IP-100,2013-07-11 03:35:00,
2013-07-10 23:40:00,71.1,71.0,29.20,SSE,157,3.0,4.0,100,0.00,,,0.32,Rainwise IP-100,2013-07-11 03:40:00,
2013-07-10 23:45:00,71.1,71.0,29.20,SSE,157,2.0,4.0,100,0.00,,,0.32,Rainwise IP-100,2013-07-11 03:45:00,
2013-07-10 23:50:00,71.1,71.0,29.20,SSE,157,0.0,3.0,100,0.00,,,0.32,Rainwise IP-100,2013-07-11 03:50:00,
2013-07-10 23:55:00,70.9,71.0,29.20,SSE,157,0.0,0.0,100,0.00,,,0.32,Rainwise IP-100,2013-07-11 03:55:00,